THOR AGENA D R/B, 727

Orbit data source: Space-Track

THOR AGENA D R/B, 727 is space debris in LEO originally from a launch on Sat, 11 Jan 1964 UTC via a THOR SLV-2A AGENA D launch vehicle from the Air Force Western Test Range (AFWTR). Debris objects in space refer to the collection of defunct objects orbiting the Earth. Examples of debris include non-operational satellites, rocket bodies, and fragments generated from explosions, collisions, or faulty payload assembly.

Loading next visibility...
THOR AGENA D R/B details
Identifier
727, 1964-001A
Orbit
LEO
Last TLE update11 hours ago
Origin
Flag of USSAFSP (US)
ManufacturerHRB-Singer
MissionSpacecraft
Bus & MotorAFTRACK, Unknown motor
Mass~700 kg wet, 5 kg dry
Launch date (UTC)
1964-01-11 (61 years ago)
Launch vehicle
THOR SLV-2A AGENA D
Launch site
Air Force Western Test Range (AFWTR)
Object type
Payload
Rocket body
Debris
Shape & HBRCyl + 1 Nozzle, 7.08 m
Radar Cross Section9.225 m², Large (>1 m²)

Expand to show TLE details & history

TLE from 11 hours ago
0 THOR AGENA D R/B
1   727U 64001A   25023.22786748  .00000136  00000-0  13931-3 0  9993
2   727  69.9072 305.0871 0014701 331.0923  28.9366 13.95689973106460
Epoch: 2025-01-23T05:28Z
Definitive object data (Epoch: 2025-01-23T05:28:07.75Z)
Latitude-0.00001°
Longitude100.2464°
Altitude901.691 km
Speed7.406 km/s
True Right ascension20h 20m 20s
True Declination0° 00' 00"
Sunlit
Object was in daylight at TLE epoch
Visualization TLE readout
Latitude57.16624°
Longitude-115.05332°
Altitude926.625 km
Speed7.39 km/s
Apparent Right ascension05h 44m 51s
Apparent Declination12° 59' 53"
Sunlit
Object is in full shadow
Visualization observer readout
Local Sidereal Time17:33:17
Azimuth356.469° N
Elevation-37.017°
Doppler factor1
Orbital elements
Apogee altitude917.521 km
Perigee altitude896.102 km
Semi-major axis7,284.948 km
Eccentricity0.0014701
Inclination69.9072°
RAAN305.0871°
Arg. of periapsis331.0923°
True anomaly29.01824°
Mean anomaly28.9366°
Eccentric anomaly28.97741°
Mean motion3.49063 °/min
BSTAR0.00013931
Orbital period103.13 mins
Loading maneuver chart data...
Loading historical data...
Loading historical data...
Loading historical data...
Loading historical data...
Loading historical data...
Loading historical data...
Loading historical data...
Other satellites on launch #1 in the year 1964 (1964-01-11 UTC)

THOR AGENA D R/B Visibility forecast

Observer location: undefined°, undefined

Span
Click to sort rows by Start time (UTC) header in descending order
Start Az.
Max El. time (UTC)
Max El. Az.
Max El.
End time (UTC)
End Az.
9 mins2025-01-23 19:20:44.868Z166.526° S2025-01-23 19:24:44.868Z114.855° SE30.986°2025-01-23 19:29:44.868Z44.439° NE
9 mins2025-01-23 21:06:44.868Z247.389° WSW2025-01-23 21:10:44.868Z303.016° NW29.049°2025-01-23 21:15:44.868Z5.91° NNE
7 mins2025-01-24 04:23:44.868Z13.235° NNE2025-01-24 04:26:44.868Z52.809° ENE22.609°2025-01-24 04:30:44.868Z100.414° ESE
9 mins2025-01-24 06:08:44.868Z321.077° NNW2025-01-24 06:12:44.868Z249.711° W39.649°2025-01-24 06:17:44.868Z176.421° S
|